[[{"header":{"parameterUnit":"m.s-1","parameterCategory":1,"la1":30.2991,"la2":30.254,"lo1":-89.0895,"lo2":-89.0444,"dy":0.0017,"dx":0.0017,"nx":28,"ny":28,"refTime":"2024-07-21T09:00:00:Z","depth":0,"parameterNumber":2,"parameterNumberName":"U-component_of_WINDS"},"data":[0,0,0,0,0,0,0,0,0,0,0,0,0,0,0,0,0,0,0,0,0,0,0,0,0,0,0,0,0,0,0,0,0,0,0,0,0,0,0,0,0,0,0,0,0,0,0,0,0,0,0,0,0,0,0,0,0,0,0.1601,0.1602,0,0.1701,0.1702,0.1703,0.1747,0.1746,0.1746,0.1746,0.1848,0.185,0.1853,0,0,0,0,0,0,0,0,0,0,0,0,0,0.1449,0.1451,0.1601,0.1602,0.1603,0.17,0.1702,0.1703,0.1747,0.1746,0.1746,0.1746,0.1847,0.185,0.1853,0,0,0,0,0,0,0,0,0,0,0,0,0,0.1528,0.1452,0.1601,0.1637,0.1641,0.17,0.1702,0.1704,0.1747,0.1746,0.1746,0.1746,0.1846,0.185,0.1854,0.1884,0,0,0.1867,0.1869,0,0,0,0,0,0,0,0,0.1524,0.1534,0.163,0.1634,0.1639,0.1711,0.1685,0.1764,0.1747,0.1706,0.1746,0.1746,0.1802,0.181,0.1829,0.1889,0.1893,0.1867,0.187,0.1872,0.1873,0,0,0,0,0,0,0,0.1518,0.153,0.164,0.1632,0.1637,0.1648,0.1659,0.1701,0.1754,0.171,0.1713,0.1725,0.1805,0.1825,0.1832,0.1895,0.1867,0.1871,0.1874,0.1875,0.1987,0.1987,0,0,0,0,0,0,0.1507,0.1525,0.1637,0.1643,0.158,0.1651,0.1663,0.1688,0.1754,0.1764,0.1725,0.1726,0.1818,0.1827,0.1836,0.1877,0.1872,0.1876,0.1878,0.1987,0.1987,0.1988,0,0,0,0,0,0,0.1503,0.1516,0.1633,0.1585,0.1601,0.1654,0.1681,0.169,0.1711,0.1765,0.1775,0.1736,0.1818,0.183,0.1872,0.1881,0.1877,0.1881,0.1986,0.1987,0.1987,0.1959,0,0,0,0,0,0,0.1499,0.1515,0.1527,0.1585,0.1603,0.1668,0.1682,0.1692,0.1718,0.1721,0.1778,0.1787,0.1819,0.1866,0.1877,0.1887,0.1885,0.1986,0.1986,0.1987,0.196,0.1959,0.1958,0,0,0,0,0,0.1493,0.1514,0.1527,0.154,0.1619,0.1668,0.1679,0.1715,0.1718,0.1731,0.1766,0.1785,0.1878,0.187,0.1882,0.1894,0.1985,0.1986,0.1987,0.196,0.1959,0.1958,0,0,0,0,0,0,0.1455,0.1523,0.1537,0.1578,0.1617,0.1676,0.1693,0.1712,0.1751,0.1752,0.1795,0.1808,0.1847,0.1875,0.1864,0.1928,0.1933,0.1937,0.1909,0.1908,0.1907,0.19,0.1888,0,0,0,0,0,0.1451,0.1486,0.1543,0.1573,0.1592,0.1639,0.1662,0.1686,0.1728,0.1745,0.1783,0.1824,0.1862,0.1887,0.1925,0.1964,0.1978,0.1978,0.1977,0.1976,0.1979,0.2004,0.2005,0.1991,0.1991,0.1991,0,0,0.1444,0.1485,0.1504,0.1567,0.16,0.1635,0.1653,0.1688,0.1715,0.175,0.1794,0.1823,0.1871,0.1912,0.1933,0.1937,0.1986,0.1978,0.1977,0.198,0.2005,0.2006,0.2007,0.1991,0.1991,0.1991,0,0,0.1449,0.1483,0.1513,0.1546,0.1597,0.1628,0.1635,0.1691,0.1712,0.1756,0.1784,0.1816,0.1881,0.1915,0.194,0.1959,0.1979,0.1971,0.1967,0.199,0.1991,0.1993,0.2001,0.2003,0.1973,0.1973,0.1973,0,0.1433,0.1487,0.1526,0.1561,0.1588,0.1622,0.1653,0.1684,0.1744,0.1762,0.1766,0.1849,0.1884,0.1934,0.1939,0.1958,0.1968,0.1965,0.1988,0.199,0.1991,0.2,0.2002,0.1972,0.1972,0.1972,0.1972,0,0.1467,0.1504,0.1522,0.158,0.1609,0.1642,0.1685,0.171,0.1733,0.1764,0.1809,0.1852,0.19,0.1914,0.1935,0.1968,0.1969,0.198,0.1986,0.1991,0.1999,0.2003,0.197,0.197,0.1971,0.1971,0,0,0.145,0.153,0.1536,0.1563,0.1622,0.1652,0.1686,0.1734,0.1755,0.1796,0.1827,0.1882,0.1893,0.1921,0.1947,0.1967,0.1982,0.1976,0.1978,0.1977,0.2022,0.2014,0.2017,0.1995,0.1995,0.1996,0.2018,0,0.1463,0.1528,0.1564,0.1613,0.1648,0.1682,0.1713,0.1752,0.1782,0.1817,0.185,0.1889,0.19,0.1918,0.1939,0.1975,0.1992,0.1974,0.2025,0.2026,0.2013,0.2021,0.2013,0.2031,0.2022,0.2022,0.2023,0,0.1488,0.1529,0.1582,0.1638,0.1654,0.1681,0.1729,0.1761,0.1807,0.1828,0.1861,0.1887,0.1926,0.1929,0.1983,0.1971,0.1993,0.2014,0.2016,0.2023,0.2025,0.2029,0.2038,0.2041,0.2028,0.2028,0.2027,0,0.1472,0.154,0.1581,0.1603,0.167,0.1688,0.1717,0.1762,0.1789,0.1831,0.1849,0.1894,0.1919,0.1954,0.1992,0.199,0.2043,0.2049,0.2062,0.2061,0.2072,0.2071,0.2086,0.2085,0.2085,0.2085,0.2085,0,0.1484,0.1515,0.1575,0.16,0.1637,0.1678,0.1713,0.1745,0.1785,0.1818,0.1849,0.1879,0.1927,0.1963,0.1992,0.2034,0.2045,0.2063,0.2071,0.2061,0.2059,0.2077,0.2077,0.2086,0.2085,0.2085,0.2085,0,0.1472,0.1513,0.1561,0.162,0.1636,0.166,0.1711,0.1737,0.177,0.181,0.1822,0.1873,0.1917,0.1958,0.2016,0.2036,0.2078,0.2088,0.2063,0.2067,0.2079,0.2077,0.2107,0.2113,0.2106,0.2106,0.2106,0,0.1477,0.1503,0.1565,0.159,0.1618,0.1656,0.1684,0.1726,0.1754,0.1809,0.1829,0.1876,0.1915,0.1984,0.2026,0.2071,0.2082,0.209,0.2089,0.2079,0.2084,0.2083,0.2086,0.2089,0.2089,0.2089,0.2089,0,0.1483,0.1503,0.1542,0.1589,0.1622,0.1661,0.1701,0.1719,0.1769,0.1798,0.1844,0.1875,0.1935,0.1981,0.2032,0.2061,0.2084,0.2088,0.2094,0.2084,0.207,0.2079,0.2062,0.2088,0.2088,0.2088,0.2088,0.2088,0.1481,0.1505,0.1554,0.1597,0.1632,0.1669,0.1697,0.1733,0.1772,0.1825,0.1847,0.1894,0.1941,0.2011,0.2041,0.2078,0.2083,0.2091,0.2093,0.2094,0.2093,0.2063,0.2087,0.2087,0.2087,0.2087,0.2087,0,0.1489,0.1522,0.1562,0.1617,0.1652,0.167,0.1716,0.1743,0.1784,0.1826,0.1864,0.1918,0.1963,0.2009,0.2057,0.2078,0.209,0.2089,0.2089,0.2096,0.2085,0.2076,0.2079,0.2079,0.2079,0.2079,0.2079,0.2079,0.1497,0.1541,0.1566,0.1627,0.166,0.1707,0.1731,0.1766,0.18,0.1858,0.1896,0.1926,0.197,0.2022,0.2065,0.2077,0.2094,0.2091,0.2106,0.2096,0.2096,0.2096,0.2088,0.2094,0.2094,0.2114,0.2114,0.2114]},{"header":{"parameterUnit":"m.s-1","parameterCategory":1,"la1":30.2991,"la2":30.254,"lo1":-89.0895,"lo2":-89.0444,"dy":0.0017,"dx":0.0017,"nx":28,"ny":28,"refTime":"2024-07-21T09:00:00:Z","depth":0,"parameterNumber":3,"parameterNumberName":"V-component_of_WINDS"},"data":[0,0,0,0,0,0,0,0,0,0,0,0,0,0,0,0,0,0,0,0,0,0,0,0,0,0,0,0,0,0,0,0,0,0,0,0,0,0,0,0,0,0,0,0,0,0,0,0,0,0,0,0,0,0,0,0,0,0,0.6765,0.6765,0,0.6781,0.6782,0.6782,0.6741,0.674,0.6738,0.6737,0.6752,0.6754,0.6756,0,0,0,0,0,0,0,0,0,0,0,0,0,0.6696,0.6698,0.6765,0.6765,0.6765,0.6781,0.6782,0.6782,0.6741,0.674,0.6738,0.6736,0.6752,0.6754,0.6756,0,0,0,0,0,0,0,0,0,0,0,0,0,0.6721,0.6698,0.6765,0.6747,0.6745,0.6781,0.6782,0.6782,0.6741,0.6739,0.6738,0.6736,0.6751,0.6754,0.6756,0.681,0,0,0.6763,0.6764,0,0,0,0,0,0,0,0,0.6719,0.6723,0.6749,0.6748,0.6746,0.6757,0.6763,0.6791,0.6742,0.6743,0.6737,0.6735,0.6755,0.6757,0.6765,0.681,0.6811,0.6764,0.6765,0.6766,0.6767,0,0,0,0,0,0,0,0.6718,0.6722,0.6771,0.675,0.6748,0.6738,0.6739,0.6768,0.676,0.6743,0.674,0.6742,0.6754,0.6762,0.6765,0.6811,0.6764,0.6766,0.6767,0.6768,0.6903,0.6906,0,0,0,0,0,0,0.6718,0.6721,0.6771,0.6772,0.6728,0.674,0.6742,0.6756,0.6759,0.6758,0.6744,0.674,0.6759,0.6762,0.6765,0.683,0.6766,0.6768,0.677,0.6901,0.6904,0.6906,0,0,0,0,0,0,0.6717,0.6723,0.677,0.6746,0.6751,0.6744,0.6759,0.6757,0.6765,0.676,0.6758,0.6754,0.6758,0.6762,0.6799,0.683,0.6769,0.6772,0.6899,0.6902,0.6905,0.6959,0,0,0,0,0,0,0.6715,0.6723,0.6744,0.6746,0.6752,0.6804,0.6761,0.6759,0.677,0.6765,0.6769,0.6768,0.6757,0.6796,0.6802,0.6832,0.6773,0.6896,0.69,0.6904,0.6954,0.6963,0.6971,0,0,0,0,0,0.6713,0.6757,0.6745,0.6751,0.6778,0.6806,0.6809,0.6796,0.6772,0.6793,0.679,0.6768,0.6825,0.68,0.6806,0.6838,0.6894,0.6899,0.6904,0.695,0.6961,0.6971,0,0,0,0,0,0,0.6757,0.6757,0.6743,0.679,0.6798,0.6799,0.6825,0.6808,0.6823,0.6818,0.68,0.6801,0.6843,0.6843,0.6816,0.6891,0.6856,0.6862,0.6889,0.6899,0.6908,0.6907,0.6776,0,0,0,0,0,0.6772,0.6795,0.6794,0.6835,0.684,0.6832,0.6844,0.6833,0.6841,0.6844,0.6844,0.6852,0.6872,0.6885,0.6903,0.6954,0.6955,0.6978,0.6987,0.6994,0.7,0.7028,0.7039,0.6922,0.6922,0.6922,0,0,0.6803,0.6806,0.6822,0.6844,0.6849,0.6874,0.6835,0.6863,0.6881,0.6848,0.6884,0.6884,0.6892,0.6937,0.6957,0.6939,0.7032,0.7,0.7005,0.7008,0.7034,0.7046,0.7055,0.6925,0.6925,0.6924,0,0,0.6873,0.6877,0.6913,0.692,0.6929,0.6923,0.6932,0.6936,0.6935,0.6971,0.6948,0.6969,0.7003,0.701,0.7019,0.7093,0.7074,0.7099,0.7144,0.7172,0.7181,0.719,0.7218,0.7228,0.7105,0.7105,0.7105,0,0.6911,0.6948,0.6933,0.6963,0.6974,0.6946,0.6983,0.6989,0.7004,0.7012,0.6992,0.7036,0.7039,0.7086,0.7105,0.7111,0.7121,0.7099,0.7181,0.7189,0.7197,0.7224,0.7234,0.7108,0.7108,0.7108,0.7107,0,0.6995,0.7021,0.7048,0.7065,0.7078,0.7111,0.7102,0.7117,0.7105,0.7102,0.714,0.7143,0.7162,0.7172,0.716,0.7218,0.7207,0.7184,0.7149,0.7211,0.7236,0.7246,0.7113,0.7112,0.7111,0.711,0,0,0.7093,0.7102,0.7112,0.712,0.7129,0.7149,0.718,0.72,0.7215,0.7225,0.7252,0.7283,0.7263,0.7272,0.726,0.7285,0.7346,0.7259,0.7259,0.7277,0.7412,0.743,0.7442,0.7333,0.7335,0.7336,0.7412,0,0.7164,0.722,0.7208,0.7263,0.7288,0.7262,0.729,0.7298,0.7296,0.7317,0.7313,0.7336,0.7307,0.7313,0.7336,0.7334,0.7373,0.7328,0.7359,0.736,0.7359,0.7455,0.7474,0.7546,0.7422,0.7423,0.7424,0,0.7254,0.727,0.7328,0.7335,0.7345,0.737,0.7388,0.7408,0.7417,0.7414,0.7425,0.7409,0.7441,0.7405,0.7449,0.7419,0.743,0.7431,0.7434,0.7437,0.7397,0.7463,0.7568,0.7579,0.7439,0.7438,0.7437,0,0.7322,0.7358,0.7398,0.7405,0.7413,0.7432,0.7436,0.7443,0.7457,0.7472,0.748,0.7499,0.7509,0.7524,0.7514,0.7488,0.756,0.7523,0.7559,0.756,0.7577,0.7576,0.7687,0.7582,0.7582,0.7581,0.7581,0,0.7404,0.744,0.7429,0.7454,0.7495,0.7481,0.7521,0.7522,0.7529,0.7554,0.7532,0.7555,0.7539,0.7561,0.7553,0.7592,0.7597,0.7595,0.7593,0.7598,0.7599,0.7607,0.7602,0.7584,0.7584,0.7583,0.7582,0,0.7487,0.7481,0.7523,0.7528,0.753,0.756,0.7564,0.7587,0.7583,0.7615,0.7621,0.7616,0.7641,0.7632,0.7658,0.7652,0.7703,0.7693,0.77,0.7699,0.7737,0.7734,0.7858,0.7874,0.7757,0.7758,0.7759,0,0.754,0.7568,0.7577,0.7592,0.7599,0.7623,0.7637,0.7624,0.7639,0.7653,0.7675,0.7698,0.7716,0.7758,0.7756,0.7776,0.7768,0.781,0.7771,0.7776,0.7771,0.777,0.7773,0.7818,0.7819,0.782,0.7821,0,0.7636,0.7632,0.7653,0.7674,0.7692,0.7707,0.772,0.7734,0.7722,0.774,0.7766,0.7781,0.7808,0.7832,0.7851,0.7855,0.7837,0.7834,0.7844,0.785,0.7854,0.7854,0.7724,0.7831,0.783,0.7829,0.7829,0.7828,0.7707,0.7732,0.7742,0.7767,0.7776,0.779,0.7812,0.7812,0.7834,0.7857,0.7847,0.7878,0.7887,0.7911,0.7917,0.7941,0.7924,0.7938,0.7942,0.7946,0.7952,0.7849,0.7944,0.7943,0.7943,0.7943,0.7943,0,0.7803,0.7809,0.7832,0.7853,0.7872,0.7854,0.7868,0.7886,0.7914,0.7924,0.7943,0.7974,0.7997,0.7998,0.802,0.8039,0.8031,0.8045,0.8044,0.8046,0.7964,0.7955,0.8051,0.8051,0.8051,0.8051,0.8051,0.8051,0.7856,0.7897,0.7895,0.7941,0.7946,0.7977,0.7987,0.7999,0.8008,0.8044,0.8064,0.8064,0.8071,0.8093,0.8114,0.8114,0.8123,0.8141,0.8138,0.8062,0.8051,0.8041,0.8032,0.8143,0.8143,0.8217,0.8218,0.8218]}]]